map of LFBC home
Great Circle Mapper logo
LFBC - Airport
Location
City:  Cazaux, France
ICAO:LFBC

Details
Type:Airport (Aerodrome, Airfield)
Use:Military
Latitude:4432'06"N (44.534883)
Longitude:107'53"W (-1.131449)
Elevation:84 ft (26 m)
Variation:0.49W (WMM2015 magnetic declination)
0.13 annual change
Runways:1
Longest:7900 × 148 ft (2408 × 45 m)

Time
Time Zone:UTC+1 (DST+2)
Local Time:

Weather
METAR:LFBC 251700Z AUTO 29007KT 240V320 9999 BKN012 OVC019 17/14 Q1021
TAF:LFBC 251100Z 2512/2612 29007KT 9999 BKN012
TEMPO 2512/2518 SCT020
BECMG 2518/2520 BKN015
BECMG 2608/2610 CAVOK

Related Locations
Nearby:
Farthest:CHT: 12203 mi / 19638 km
Waitangi [Tuuta], Chatham Islands, NZ

Find:

   beyond  
but within

Other Information
Maps:
NOTAMs:
Links:
Sources:

  
flag of France   

Sectional Chart

Flight Planning
at skyvector.com

Satellite Image

Google Maps Satellite View

 

Copyright © 2004-2015 Karl L. Swartz. All rights reserved.
The Great Circle Mapper name and logo are trademarks of the Great Circle Mapper.
All other trademarks mentioned herein belong to their respective owners.
Please see credits for attibutions and further copyright information.

  Follow gcmap on Facebook Follow gcmap on Twitter Follow gcmap on Google+

hCard Microformat

Geo Microformat